Temperature
3 4 4 4 4 4 4 5 5 7 8 9 9 10 11 11 12 12 12 13 13 13 13 13 13 14 14 14 14 14 15 15 15 15 14 13 13 12 12 11 11 11 10 10
2 4 5 4 5 5 5 5 6 7 8 8 8 9 9 10 10 10 11 11 11 11 12 12 12 12 13 13 13 14 14 14 14 14 13 13 13 12 12 11 11 11 10 10
1 4 4 3 5 5 5 5 5 6 7 7 7 8 8 8 9 9 9 9 9 10 11 11 11 12 12 12 12 13 13 13 14 13 13 13 13 12 12 11 11 10 10 10
1 2 2 4 5 6 5 5 5 5 6 6 6 7 7 7 8 8 8 9 9 9 10 10 11 11 11 12 12 12 12 12 13 13 13 13 12 12 12 11 11 10 10 10
1 1 2 4 4 4 4 4 4 4 5 6 6 7 7 7 7 7 8 8 9 9 9 9 10 10 11 11 11 11 12 12 12 12 12 12 12 12 11 11 10 10 10 10
0 1 2 3 4 4 4 3 3 4 4 5 5 5 5 6 6 7 7 8 8 8 9 9 9 10 10 11 11 11 11 12 12 12 12 12 12 11 11 11 10 10 10 10
-0 0 2 3 4 4 3 2 3 3 4 4 4 4 5 5 6 6 7 7 8 8 8 8 9 9 10 10 10 11 11 11 11 11 12 12 11 11 10 10 10 9 9 9
-0 0 1 3 3 2 2 3 3 3 3 3 3 4 4 5 5 5 6 7 7 7 8 8 8 9 9 10 10 10 10 11 11 11 11 11 11 10 10 10 9 9 9 9
0 1 2 3 3 2 2 2 2 2 2 3 3 3 4 4 5 5 5 6 6 7 7 7 8 8 9 9 10 10 10 10 10 10 10 10 10 10 10 9 9 8 8 8
1 2 2 3 2 2 2 2 2 2 2 2 2 2 3 4 4 4 4 5 6 6 7 7 7 8 8 9 9 9 9 9 9 9 9 9 9 10 9 9 9 8 8 8
0 1 1 2 2 2 1 2 2 2 1 1 1 2 2 2 3 3 4 4 5 6 6 7 7 7 8 8 9 9 9 9 9 9 9 9 9 9 9 9 9 9 8 8
-0 1 0 1 1 1 1 1 1 1 1 1 1 1 1 2 2 3 3 3 4 5 6 6 6 7 7 8 8 8 8 8 8 8 8 8 8 8 8 8 8 7 7 7
1 1 1 1 1 1 0 0 0 0 0 0 1 1 1 1 2 2 2 3 4 4 5 5 6 6 7 7 7 8 8 8 8 8 8 7 7 8 7 7 7 7 7 7
0 0 -0 -0 -0 -0 -0 -0 -0 -0 -0 -0 -0 0 0 1 1 1 2 2 3 4 4 5 5 6 6 6 7 7 7 7 7 7 7 7 7 7 7 7 6 6 6 6
-1 -1 -1 -1 -1 -1 -1 -1 -1 -1 -1 -1 -0 -0 -0 -0 0 1 1 1 2 3 3 4 4 5 5 6 6 6 6 7 7 7 6 6 6 6 6 6 6 6 5 5
-2 -2 -2 -2 -2 -2 -2 -2 -2 -2 -1 -1 -1 -1 -1 -1 -0 -0 0 1 1 2 3 3 4 4 5 5 5 5 6 6 6 6 6 6 6 6 6 6 6 5 5 5
-3 -3 -3 -3 -3 -3 -3 -3 -3 -2 -2 -2 -2 -1 -1 -1 -1 -1 -0 0 1 1 2 2 3 3 4 4 4 5 5 5 5 5 6 6 6 5 5 5 5 5 4 4
-4 -4 -4 -4 -4 -4 -4 -4 -3 -3 -3 -3 -2 -2 -2 -2 -2 -1 -1 -1 -0 0 1 1 2 2 3 3 4 4 5 5 5 5 5 5 5 5 4 4 4 4 4 3
-5 -5 -5 -5 -5 -5 -5 -5 -4 -4 -3 -3 -3 -3 -2 -2 -2 -2 -2 -1 -1 -0 0 1 1 2 2 3 3 4 4 4 4 4 4 4 4 4 4 4 4 4 3 3
-6 -6 -6 -6 -6 -6 -6 -5 -5 -4 -4 -4 -3 -3 -3 -2 -2 -2 -2 -2 -1 -0 -0 0 1 1 2 3 3 3 4 4 4 4 3 3 3 3 3 3 3 3 3 2
-7 -7 -7 -6 -6 -6 -6 -6 -6 -5 -5 -4 -4 -3 -3 -3 -3 -2 -2 -2 -1 -1 -1 -0 1 1 2 2 3 3 3 3 3 3 3 3 3 3 3 3 3 2 2 2
-7 -7 -7 -7 -7 -7 -6 -6 -6 -5 -5 -4 -4 -4 -4 -3 -3 -3 -3 -2 -2 -2 -1 -0 1 1 2 2 2 2 3 3 3 3 3 3 2 2 2 2 2 2 1 1
-8 -8 -7 -7 -7 -7 -6 -6 -6 -5 -5 -5 -4 -4 -4 -4 -3 -3 -3 -3 -2 -2 -1 -0 0 1 1 2 2 2 2 2 2 2 2 2 2 2 2 1 1 1 1 0
-8 -8 -8 -8 -7 -7 -7 -6 -6 -6 -5 -5 -5 -5 -5 -4 -4 -4 -3 -3 -2 -2 -1 -0 0 1 1 1 1 1 2 2 2 2 2 2 1 1 1 1 1 0 0 -0
-9 -8 -8 -8 -8 -8 -7 -7 -7 -6 -6 -6 -5 -5 -5 -5 -4 -4 -4 -3 -3 -2 -1 -1 -0 -0 0 1 1 1 1 1 1 1 1 1 1 0 0 0 -0 -0 -1 -1
-9 -9 -9 -8 -8 -8 -8 -7 -7 -7 -6 -6 -6 -6 -5 -5 -5 -4 -4 -4 -3 -2 -2 -1 -1 -1 -1 -0 0 0 0 0 0 0 0 -0 -0 -0 -0 -1 -1 -1 -1 -1
-9 -9 -9 -9 -8 -8 -8 -7 -7 -7 -7 -7 -7 -6 -6 -5 -5 -5 -4 -4 -3 -3 -2 -2 -2 -1 -1 -1 -1 -0 -0 -1 -1 -1 -1 -1 -1 -1 -1 -1 -1 -1 -2 -2
Wind_Speed
12 13 11 11 10 8 10 10 8 8 9 7 9 7 4 4 3 3 2 3 3 3 3 3 3 4 4 4 6 7 9 11 11 11 12 13 13 13 13 13 13 13 12 12
11 11 10 11 10 10 11 10 11 12 10 5 7 7 6 5 5 4 4 3 3 2 2 2 3 3 4 4 5 6 8 9 9 10 10 11 12 12 12 12 12 12 13 13
6 9 10 7 8 10 9 7 8 9 6 6 5 7 6 6 7 6 5 3 3 2 1 1 2 3 5 5 5 6 7 8 9 9 10 10 11 12 12 12 11 11 12 12
5 7 6 2 2 3 5 4 3 5 5 5 6 6 3 5 6 6 5 4 3 3 2 0 1 2 3 4 5 6 7 7 8 9 9 10 11 11 11 10 11 11 11 12
4 5 7 3 3 4 4 2 3 5 6 7 8 4 3 6 7 6 4 3 3 3 2 1 1 2 3 4 5 6 6 7 8 9 10 10 11 11 9 9 9 9 10 11
5 5 4 3 7 7 3 2 5 5 5 7 7 2 4 8 9 8 6 5 4 3 1 1 1 2 3 4 5 6 6 6 6 8 9 10 10 9 8 8 9 9 8 9
8 6 4 4 8 5 0 2 5 6 6 6 4 4 7 8 7 7 7 5 4 3 1 0 1 2 3 3 5 5 5 6 6 7 8 9 8 8 9 9 9 9 8 7
4 6 4 5 4 2 3 4 5 6 7 7 7 8 8 8 7 7 7 6 4 3 3 1 1 2 2 2 3 5 6 6 6 6 7 7 9 8 9 10 10 9 9 7
4 4 4 3 3 3 3 5 5 6 7 8 8 9 9 8 8 7 7 6 4 3 3 2 0 1 2 1 4 6 7 7 7 7 7 7 9 9 9 9 8 8 8 7
5 6 6 6 5 5 6 7 7 6 7 8 9 10 9 8 7 7 7 6 5 4 3 3 2 1 1 2 4 6 7 7 7 7 7 6 6 7 8 8 8 8 8 8
8 8 8 6 6 7 9 9 9 8 7 8 9 10 9 9 8 7 6 6 5 4 4 4 2 0 2 3 5 5 6 7 7 7 7 7 5 4 5 5 8 9 8 9
8 6 6 8 8 9 10 9 10 10 10 9 8 9 10 9 8 7 6 6 5 4 4 4 2 1 2 4 5 6 6 6 6 6 6 7 7 7 9 6 9 9 10 10
9 8 9 10 10 9 9 10 10 10 10 10 9 8 9 9 8 7 7 7 6 5 4 4 3 3 3 4 5 6 7 7 6 7 7 7 7 8 7 8 10 10 12 13
7 7 9 8 9 10 10 10 10 10 10 10 9 9 8 8 8 7 7 7 6 5 5 4 4 4 3 4 5 5 6 6 7 7 7 7 7 7 7 8 7 6 7 12
7 7 9 10 10 10 10 9 9 9 9 9 8 8 8 8 8 8 7 6 5 5 5 4 4 4 3 4 5 6 6 6 6 7 7 7 7 7 7 8 8 7 7 8
8 9 9 10 11 11 10 10 10 10 9 10 9 8 8 8 8 7 6 5 5 6 5 4 5 4 4 5 6 5 5 8 7 7 7 7 7 8 8 8 8 8 8 7
8 8 9 10 11 11 11 10 10 10 10 10 10 9 8 8 7 7 6 5 5 5 5 5 4 3 4 5 6 6 6 7 9 7 7 7 7 8 8 8 8 8 7 8
7 9 9 10 11 12 12 11 10 10 10 10 10 9 8 8 7 7 6 4 3 4 4 4 3 3 4 5 5 6 6 6 6 7 7 7 7 7 8 8 9 9 7 8
9 10 10 10 11 11 11 11 10 10 10 9 9 9 8 7 6 6 4 4 4 5 4 3 4 4 4 6 6 6 7 8 7 7 7 9 8 7 8 8 8 8 8 7
10 10 11 11 11 11 11 10 10 10 9 9 8 7 7 6 5 5 4 4 4 4 3 3 4 4 5 6 6 6 7 8 8 8 7 7 8 8 8 8 8 8 8 7
11 11 11 11 11 10 10 10 10 11 9 7 6 6 6 5 4 3 2 3 2 3 4 5 4 4 4 6 7 6 7 8 8 8 8 8 8 8 8 8 8 8 8 7
10 10 11 10 10 10 9 9 9 9 8 6 5 4 4 3 2 2 2 2 2 4 3 3 3 6 7 7 6 7 7 8 7 8 8 8 8 8 8 8 8 8 8 7
10 10 10 10 10 10 9 8 7 7 6 5 4 4 3 3 2 2 2 1 2 4 3 3 6 9 9 6 6 7 7 8 8 8 8 8 8 8 8 8 8 8 8 7
10 10 10 9 9 8 8 7 6 5 4 4 3 3 2 1 1 1 1 2 3 4 3 6 9 10 9 6 6 7 7 8 8 8 8 8 8 8 8 8 8 7 8 8
10 9 9 9 8 6 6 6 5 4 3 2 2 2 1 0 0 1 2 3 5 6 5 7 9 9 7 6 7 7 7 7 8 8 8 8 8 8 8 8 8 8 7 7
8 8 7 7 6 5 5 4 3 3 2 1 1 1 1 2 2 2 3 4 6 6 5 5 6 7 6 7 7 7 7 8 9 8 8 8 9 8 8 8 9 8 7 7
7 7 6 5 4 4 4 3 2 2 1 1 1 2 2 3 3 4 5 5 5 5 6 6 6 6 7 7 7 8 7 8 8 8 8 8 8 8 8 9 7 7 7 7
Wind_Direction
283 284 278 263 262 246 232 232 232 254 276 300 319 329 350 2 14 30 54 91 102 120 127 136 149 158 165 175 178 179 183 186 188 185 183 183 183 182 181 181 181 181 181 182
287 284 281 267 256 248 240 242 249 263 272 302 311 339 3 15 31 28 27 39 55 78 106 138 159 165 165 176 182 180 183 184 177 175 176 177 177 176 174 175 175 176 181 182
281 294 292 262 246 233 228 234 246 253 276 335 342 352 358 11 22 21 17 14 15 15 114 164 177 176 177 179 175 176 177 173 169 169 171 171 167 169 173 175 173 177 180 180
279 290 255 239 331 268 226 231 273 274 305 326 313 311 350 13 6 357 356 354 349 344 334 124 139 159 162 157 161 165 163 164 165 165 167 163 163 169 172 172 175 178 179 179
266 275 275 295 327 295 256 230 327 307 314 326 319 308 338 353 355 343 340 337 325 321 325 88 128 137 143 150 153 155 159 165 167 164 162 163 166 168 167 167 170 172 173 172
252 265 269 344 336 319 262 220 353 333 330 340 346 317 306 338 340 341 343 342 339 343 17 85 104 130 136 150 153 160 165 164 160 159 162 164 164 162 158 158 160 159 161 167
243 252 269 337 338 349 201 304 341 353 344 343 335 304 309 324 329 332 332 335 343 348 355 108 101 115 141 152 161 158 152 149 150 152 155 155 151 149 149 148 148 150 150 152
237 246 260 356 2 4 295 313 331 341 339 333 322 315 320 323 327 335 333 330 338 345 341 354 110 120 132 155 145 138 142 142 143 142 141 143 143 145 146 147 147 148 146 143
230 249 300 323 316 310 312 316 323 326 325 325 322 319 320 321 326 330 328 325 331 336 333 334 45 135 143 132 127 130 135 136 134 134 137 143 147 147 147 149 152 154 153 152
270 268 296 306 316 317 317 315 315 319 320 320 314 313 313 313 317 319 320 324 326 327 323 322 327 24 141 139 133 133 137 136 136 137 137 136 140 147 152 156 155 156 156 155
269 280 294 285 304 312 312 313 315 315 312 307 304 303 304 306 304 304 306 307 309 303 293 293 297 110 137 146 141 141 141 140 138 136 135 129 118 119 142 154 163 160 162 158
264 274 277 288 304 309 308 307 309 311 307 302 295 293 294 292 293 295 296 294 293 290 288 290 283 203 169 159 154 151 149 146 143 139 134 130 119 92 69 100 121 132 142 144
268 278 279 284 292 298 299 300 301 301 298 296 292 287 285 285 288 287 288 285 279 275 270 271 261 225 189 167 163 164 161 156 149 145 143 140 136 131 116 86 87 108 127 134
286 291 286 288 292 295 292 293 293 292 291 290 289 288 285 284 283 280 280 280 278 269 260 255 244 230 200 167 163 161 155 153 151 149 146 145 143 140 138 136 127 107 112 129
293 292 288 296 296 296 295 293 291 289 290 289 286 284 283 283 281 280 281 278 274 264 256 247 235 230 191 161 159 155 152 151 146 144 143 143 140 137 135 134 133 130 123 124
298 294 293 294 296 297 296 294 291 291 291 290 288 285 282 280 280 280 280 270 257 253 249 236 228 220 175 156 151 147 147 147 147 144 142 141 140 140 140 141 140 142 144 143
294 292 297 300 297 295 293 292 291 291 291 290 288 288 284 280 277 276 276 268 253 251 247 233 224 192 163 157 153 149 145 144 141 140 143 144 145 144 145 146 146 145 145 149
302 295 295 294 295 297 298 298 295 292 290 291 293 288 281 275 271 269 267 267 257 254 245 224 198 165 158 155 150 147 145 147 147 145 141 141 142 142 144 145 145 143 139 140
312 306 298 293 293 293 292 292 294 292 290 288 285 281 277 273 268 265 256 241 234 238 245 193 172 164 157 153 149 145 145 143 140 138 138 142 141 142 144 144 143 144 142 141
309 304 300 296 294 292 292 293 292 290 288 285 280 275 274 270 265 260 248 242 240 230 196 169 158 158 154 151 151 147 146 146 145 143 143 144 143 142 142 142 142 142 141 141
307 304 301 297 295 293 290 290 290 288 288 284 277 272 270 269 262 248 225 238 242 191 177 176 172 167 161 156 149 147 147 147 147 147 145 143 141 140 141 142 142 141 142 140
307 305 303 298 296 294 291 289 286 286 287 285 281 277 271 273 267 259 256 238 202 172 167 165 159 158 156 151 145 143 144 145 144 143 142 141 142 143 144 143 142 141 141 141
305 303 302 299 297 297 297 292 287 286 286 285 283 277 270 268 258 216 234 231 170 156 150 155 152 150 148 142 138 137 140 140 140 139 138 138 140 141 142 141 141 141 141 140
306 306 303 300 299 298 299 301 298 292 288 284 284 281 271 270 313 333 119 149 150 139 132 136 137 139 137 132 130 132 133 133 132 131 131 133 134 136 137 138 137 137 138 137
305 304 304 305 305 300 297 303 309 309 309 311 319 321 304 268 193 115 109 114 115 111 110 116 118 124 124 121 125 125 126 128 130 131 131 133 134 134 135 135 136 136 136 136
305 305 304 302 302 305 307 307 308 316 325 342 2 22 52 77 96 105 103 98 99 101 97 100 103 106 107 112 116 118 120 123 122 123 128 129 130 130 130 131 130 132 132 132
308 310 311 314 317 319 318 315 318 327 343 33 50 47 65 84 97 99 100 99 96 91 89 89 91 96 101 105 107 108 110 112 115 118 122 124 125 126 127 126 127 127 128 132
Height
1384 1378 1376 1375 1372 1371 1371 1367 1366 1356 1352 1350 1348 1345 1341 1340 1340 1340 1341 1343 1345 1347 1350 1353 1355 1358 1361 1365 1369 1374 1379 1384 1389 1394 1400 1405 1410 1415 1420 1425 1430 1434 1438 1442
1381 1372 1369 1367 1365 1365 1364 1364 1361 1357 1354 1351 1350 1348 1345 1344 1344 1344 1344 1345 1346 1347 1349 1351 1353 1355 1358 1361 1365 1369 1374 1378 1384 1389 1394 1399 1404 1409 1415 1419 1424 1429 1433 1437
1383 1372 1368 1366 1359 1358 1359 1360 1360 1358 1357 1354 1351 1351 1350 1348 1347 1347 1347 1347 1347 1347 1348 1350 1351 1353 1355 1358 1361 1365 1369 1374 1379 1384 1389 1394 1399 1404 1409 1414 1418 1423 1428 1432
1385 1378 1375 1364 1356 1355 1356 1359 1360 1358 1356 1356 1354 1352 1351 1350 1350 1349 1349 1348 1347 1347 1348 1348 1350 1351 1353 1356 1358 1362 1366 1370 1374 1379 1384 1389 1394 1399 1404 1409 1413 1418 1422 1426
1385 1379 1367 1360 1358 1358 1357 1359 1360 1359 1357 1356 1353 1350 1350 1350 1350 1350 1349 1348 1348 1347 1347 1347 1348 1349 1351 1353 1356 1359 1362 1366 1370 1375 1379 1384 1388 1393 1399 1404 1408 1413 1418 1422
1384 1380 1368 1365 1359 1356 1357 1361 1361 1359 1358 1357 1354 1354 1353 1351 1350 1349 1348 1347 1347 1346 1346 1346 1347 1348 1349 1351 1354 1357 1360 1364 1368 1372 1376 1380 1384 1389 1394 1400 1404 1409 1414 1418
1383 1378 1369 1365 1360 1356 1364 1368 1363 1361 1359 1358 1357 1357 1354 1351 1350 1348 1347 1346 1346 1345 1345 1345 1345 1346 1348 1349 1352 1355 1358 1362 1365 1369 1373 1377 1382 1386 1391 1396 1401 1406 1410 1414
1379 1378 1373 1364 1361 1365 1367 1364 1362 1361 1360 1358 1356 1354 1352 1350 1348 1346 1345 1345 1344 1344 1344 1344 1345 1345 1346 1348 1351 1353 1356 1360 1363 1367 1371 1375 1379 1384 1388 1393 1397 1402 1406 1410
1374 1373 1367 1364 1364 1364 1363 1362 1361 1360 1358 1356 1354 1352 1350 1348 1346 1345 1344 1343 1342 1342 1342 1343 1344 1344 1345 1347 1349 1352 1354 1358 1361 1365 1369 1373 1377 1381 1385 1390 1394 1398 1403 1407
1369 1364 1363 1363 1362 1362 1361 1360 1359 1357 1356 1354 1352 1350 1348 1346 1345 1343 1342 1341 1341 1340 1340 1340 1342 1343 1344 1346 1347 1349 1352 1356 1359 1363 1367 1371 1375 1379 1383 1387 1391 1395 1399 1403
1366 1364 1362 1360 1360 1360 1358 1357 1355 1354 1352 1351 1350 1347 1345 1343 1342 1341 1340 1339 1339 1338 1338 1339 1340 1341 1342 1343 1345 1347 1350 1353 1357 1361 1364 1369 1373 1377 1381 1385 1389 1393 1397 1401
1364 1362 1361 1359 1358 1357 1355 1353 1351 1349 1347 1347 1346 1344 1342 1341 1339 1338 1336 1336 1336 1336 1335 1336 1337 1337 1339 1340 1342 1345 1347 1351 1354 1358 1362 1366 1370 1374 1379 1384 1388 1392 1396 1400
1358 1357 1357 1355 1354 1353 1351 1349 1348 1346 1344 1342 1341 1340 1338 1336 1335 1333 1332 1331 1331 1331 1332 1333 1334 1334 1336 1338 1340 1342 1345 1348 1351 1355 1359 1363 1367 1371 1375 1381 1385 1390 1393 1397
1354 1353 1351 1350 1349 1348 1346 1344 1343 1341 1339 1337 1336 1334 1333 1331 1330 1328 1327 1327 1327 1327 1328 1329 1330 1330 1332 1334 1336 1339 1342 1345 1349 1352 1356 1361 1365 1369 1373 1377 1381 1386 1391 1395
1349 1349 1347 1345 1344 1342 1341 1339 1337 1335 1333 1332 1331 1329 1327 1326 1324 1323 1323 1322 1322 1322 1323 1324 1325 1326 1328 1330 1332 1335 1338 1342 1346 1350 1354 1359 1363 1367 1371 1375 1379 1383 1388 1392
1345 1344 1342 1341 1339 1337 1336 1334 1332 1330 1328 1327 1325 1324 1322 1321 1319 1318 1317 1317 1317 1317 1317 1318 1320 1322 1324 1326 1329 1332 1335 1339 1343 1347 1352 1356 1360 1364 1369 1373 1377 1381 1385 1389
1341 1339 1337 1336 1334 1332 1330 1328 1327 1324 1323 1321 1320 1318 1317 1315 1314 1312 1312 1312 1312 1312 1313 1314 1315 1318 1320 1323 1326 1329 1332 1336 1341 1345 1349 1354 1358 1362 1366 1370 1374 1378 1383 1386
1337 1335 1333 1332 1329 1326 1324 1322 1321 1319 1317 1316 1314 1313 1311 1310 1308 1308 1307 1307 1308 1308 1308 1310 1312 1314 1317 1320 1323 1326 1330 1333 1338 1342 1347 1351 1355 1360 1364 1368 1372 1376 1380 1384
1332 1330 1327 1326 1324 1322 1319 1317 1315 1313 1312 1310 1308 1307 1305 1305 1304 1303 1303 1303 1303 1302 1304 1306 1308 1311 1313 1317 1320 1324 1327 1331 1336 1340 1344 1349 1353 1357 1362 1366 1369 1373 1377 1381
1327 1325 1322 1320 1318 1316 1313 1311 1309 1308 1306 1305 1303 1301 1300 1299 1299 1299 1298 1298 1298 1299 1301 1303 1305 1308 1311 1314 1318 1321 1325 1329 1333 1337 1342 1346 1350 1355 1359 1363 1367 1371 1374 1378
1322 1319 1316 1314 1311 1309 1307 1306 1304 1302 1300 1299 1298 1296 1295 1294 1294 1294 1294 1293 1294 1296 1299 1301 1303 1305 1308 1312 1315 1319 1322 1326 1330 1334 1339 1343 1348 1352 1356 1360 1364 1368 1372 1375
1318 1314 1311 1308 1306 1303 1301 1300 1298 1296 1295 1293 1293 1292 1291 1290 1290 1290 1290 1291 1292 1294 1296 1298 1301 1303 1306 1310 1313 1316 1320 1324 1328 1332 1336 1341 1345 1350 1354 1358 1362 1366 1370 1373
1314 1310 1307 1304 1301 1298 1296 1294 1293 1291 1290 1289 1288 1287 1287 1287 1287 1287 1287 1289 1290 1292 1294 1296 1299 1302 1305 1308 1311 1314 1318 1322 1326 1330 1334 1339 1343 1348 1352 1356 1360 1364 1367 1371
1309 1306 1303 1299 1296 1294 1291 1289 1288 1286 1285 1285 1284 1284 1284 1284 1284 1285 1286 1287 1289 1291 1293 1295 1298 1300 1303 1306 1310 1314 1317 1321 1325 1329 1333 1337 1342 1346 1350 1354 1358 1362 1366 1369
1305 1302 1299 1295 1292 1290 1287 1285 1284 1283 1282 1282 1282 1282 1282 1283 1283 1283 1285 1286 1288 1289 1291 1294 1297 1300 1303 1306 1309 1313 1317 1320 1324 1328 1332 1336 1340 1345 1349 1353 1356 1360 1364 1367
1302 1299 1296 1293 1290 1287 1285 1283 1282 1281 1280 1280 1280 1280 1280 1281 1282 1283 1284 1285 1287 1289 1291 1294 1297 1300 1303 1306 1309 1312 1316 1320 1324 1328 1332 1336 1340 1344 1347 1351 1355 1359 1363 1366
1299 1296 1292 1290 1287 1285 1284 1282 1281 1280 1280 1279 1279 1279 1280 1280 1282 1283 1284 1285 1287 1289 1292 1294 1297 1300 1303 1306 1309 1313 1316 1320 1324 1328 1332 1336 1339 1343 1347 1350 1354 1358 1361 1364